Weather Roundup
Issued by NWS Chicago, IL

Home | Current Version | Previous Version | Text Only | Print | Product List | Glossary Off
Versions: 1 2 3 4 5 6 7 8 9 10 11 12 13 14 15 16 17 18 19 20 21 22 23 24 25 26 27 28 29 30 31 32 33 34 35 36 37 38 39 40 41 42 43 44 45 46 47 48 49 50

000
NZUS59 KLOT 280403
HRRLOT

CHICAGO AREA WEATHER ROUNDUP
NATIONAL WEATHER SERVICE CHICAGO/ROMEOVILLE IL
1100 PM CDT MON MAR 27 2017

NOTE: "FAIR" INDICATES FEW OR NO CLOUDS BELOW 12,000 FEET WITH NO
SIGNIFICANT WEATHER AND/OR OBSTRUCTIONS TO VISIBILITY.

* THESE STATIONS ARE NOT UNDER NWS QUALITY CONTROL. THEY ALSO MAY NOT
  REPORT WEATHER SUCH AS PRECIPITATION OR FOG.

ILZ005-006-012>014-019>023-280500-
NORTHEAST ILLINOIS

CITY           SKY/WX    TMP DP  RH WIND       PRES   REMARKS
OHARE          CLOUDY    42  36  79 NE9       29.98R
MIDWAY         CLOUDY    42  37  82 N9        29.98R
AURORA         CLOUDY    44  39  82 NE9       29.97S
LANSING*       CLOUDY    40  38  91 NE10      29.97S
JOLIET*        CLOUDY    46  40  82 NE10      29.97R
WAUKEGAN       CLOUDY    39  36  89 N6        29.99R
DUPAGE AIRPORT CLOUDY    42  40  92 NE8       29.97R
WHEELING       CLOUDY    40  38  93 N7        29.99S
MORRIS*        CLOUDY    46  42  88 CALM      29.96R
NORTHERLY ISL    N/A     39  37  92 MISG        N/A
$$

WIZ051-052-058>065-066-070>072-280500-
SOUTHEAST WISCONSIN

CITY           SKY/WX    TMP DP  RH WIND       PRES   REMARKS
MILWAUKEE      CLOUDY    39  36  89 N6        30.00R FOG
KENOSHA*       CLOUDY    39  36  89 NE8       29.99R
RACINE*        CLOUDY    38  35  89 N7        30.01R
$$

INZ001>003-010>013-019-020-280500-
NORTHWEST INDIANA

CITY           SKY/WX    TMP DP  RH WIND       PRES   REMARKS
GARY*          CLOUDY    41  38  87 N8        29.98S
MICHIGAN CITY* NOT AVBL
RENSSELAER*    NOT AVBL
VALPARAISO     CLOUDY    42  38  85 N8        29.95S
$$

LMZ740>746-280500-
SOUTHERN LAKE MICHIGAN

STATION/POSITION TIME  SKY/WX   TEMP WIND        PRES    VSBY
                                AIR  DIR/SP/G
                 (UTC)          (F)  (DEG/KT/KT) (MB)    (MI)
HARRISON CRIB    0340            39  340/  7/  9   N/A
BURNHAM HARBOR   0400            39  340/  6/  8   N/A
CALUMET HARBOR   0330            39  350/  7/ 10 1014.6S
BURNS HARBOR     0340            39   30/  9/ 10 1015.2S
MICHIGAN CITY    0340            38   30/  9/ 10   N/A
$$

ABBREVIATIONS USED IN REMARKS
   TC - TEMPERATURE IN CELSIUS
  WCI - WIND CHILL INDEX
   HX - HEAT INDEX
  VSB - VISIBILITY
$$




USA.gov is the U.S. government's official web portal to all federal, state and local government web resources and services.